Location: Gammelsbach
(49.5261°N, 8.9630°E)
Time: 20:56:11
(UTC+00:00)

CZ-2C R/B - Pass Details

Date: 17 June 2025
Orbit: 783 x 866 km, 98.4° (Epoch: 16 July)

Event Time Altitude Azimuth Distance (km) Brightness Sun altitude
Exits shadow 23:15:40 10° 123° (ESE) 2,368 4.7 -17.0°
Maximum altitude 23:20:13 31° 62° (ENE) 1,386 4.1 -17.1°
Drops below altitude 10° 23:24:53 10° 2° (N) 2,433 6.4 -17.1°
Sets 23:27:29 0° 353° (N) 3,385 7.6 -17.1°
